CW3008 Weather Reports


time (UTC)temp
C
wind
direction
speed
KPH
gust
KPH
rain 1hr
cm
rain 24hr
cm
rain mn
cm
humidity
%
barometer
mb
20220629040020 20 131 0.0 0.0 0.00 0.03 0.00 75 1020.7
20220629034517 20 131 0.0 0.0 0.00 0.03 0.03 73 1020.6
20220629033012 20 131 0.0 0.0 0.00 0.03 0.03 72 1020.6
20220629031508 20 131 0.0 0.0 0.00 0.03 0.03 72 1020.4
20220629030101 20 131 0.0 0.0 0.00 0.03 0.03 73 1020.4
20220629024556 20 131 0.0 0.0 0.00 0.03 0.03 73 1020.3
20220629023052 20 131 0.0 0.0 0.00 0.03 0.03 71 1020.3
20220629021547 20 131 0.0 0.0 0.00 0.03 0.03 70 1020.2
20220629020014 20 131 0.0 0.0 0.00 0.03 0.03 71 1020.2
20220629014510 20 131 0.0 0.0 0.00 0.03 0.03 69 1020.2
20220629013002 21 131 0.0 0.0 0.00 0.03 0.03 69 1020.0
20220629011557 21 131 0.0 0.0 0.00 0.03 0.03 69 1019.9
20220629010053 20 131 0.0 0.0 0.00 0.03 0.03 70 1019.8
20220629004548 20 131 0.0 0.0 0.00 0.03 0.03 73 1019.6
20220629003044 19 131 0.0 3.2 0.00 0.03 0.03 74 1019.4
20220629001540 20 131 1.6 3.2 0.00 0.03 0.03 72 1019.4
20220629000032 20 131 1.6 4.8 0.00 0.03 0.03 70 1019.3
20220628234528 20 131 0.0 3.2 0.00 0.03 0.03 69 1019.2
20220628233025 20 131 1.6 6.4 0.00 0.03 0.03 70 1019.0
20220628231515 20 126 0.0 4.8 0.00 0.03 0.03 68 1018.9
20220628230011 20 265 0.0 3.2 0.00 0.03 0.03 67 1018.8
20220628224506 20 163 1.6 8.0 0.00 0.05 0.03 67 1018.8
20220628223059 20 180 1.6 6.4 0.00 0.05 0.03 65 1018.8
20220628221554 21 184 3.2 8.0 0.00 0.05 0.03 63 1018.5
20220628220050 21 140 1.6 6.4 0.00 0.05 0.03 61 1018.5
20220628214545 22 211 3.2 9.7 0.00 0.08 0.03 58 1018.6
20220628213011 22 136 3.2 9.7 0.00 0.08 0.03 57 1018.5
20220628211507 22 115 1.6 4.8 0.00 0.08 0.03 59 1018.5
20220628210100 22 250 1.6 8.0 0.00 0.08 0.03 59 1018.5
20220628204554 22 140 6.4 12.9 0.00 0.08 0.03 56 1018.3
20220628203056 22 157 4.8 14.5 0.00 0.08 0.03 57 1018.4
20220628201553 22 126 3.2 9.7 0.00 0.08 0.03 56 1018.5
20220628200022 23 140 3.2 8.0 0.00 0.08 0.03 53 1018.4
20220628194528 23 207 3.2 8.0 0.00 0.28 0.03 56 1018.4
20220628193057 22 153 3.2 9.7 0.00 0.28 0.03 57 1018.4
20220628191550 23 136 3.2 8.0 0.00 0.28 0.03 54 1018.4
20220628190022 23 192 1.6 8.0 0.00 0.28 0.03 53 1018.5
20220628184512 22 145 4.8 11.3 0.00 0.30 0.03 55 1018.5
20220628183009 23 280 3.2 11.3 0.00 0.30 0.03 52 1018.4
20220628181505 22 141 1.6 9.7 0.00 0.30 0.03 54 1018.4
20220628180004 22 126 4.8 12.9 0.00 0.30 0.03 54 1018.3
20220628174557 22 147 3.2 16.1 0.00 0.30 0.03 55 1018.3
20220628173052 22 126 8.0 16.1 0.00 0.30 0.03 53 1018.3
20220628171545 23 126 4.8 16.1 0.00 0.30 0.03 53 1018.4
20220628170043 23 120 3.2 6.4 0.00 0.30 0.03 54 1018.2
20220628164536 23 111 3.2 6.4 0.00 1.02 0.03 55 1018.2
20220628163036 24 99 1.6 4.8 0.00 1.02 0.03 52 1018.2
20220628161535 23 84 1.6 12.9 0.00 1.02 0.03 53 1018.2
20220628160021 25 75 0.0 6.4 0.00 1.02 0.03 50 1018.2
20220628154517 25 23 1.6 4.8 0.00 1.14 0.03 48 1018.4
20220628153012 26 15 0.0 4.8 0.00 1.14 0.03 44 1018.3
20220628151505 27 323 1.6 9.7 0.00 1.14 0.03 43 1018.2
20220628150105 26 344 0.0 3.2 0.00 1.14 0.03 45 1018.0
20220628144556 26 1 0.0 3.2 0.00 1.14 0.03 45 1018.0
20220628143055 27 343 0.0 4.8 0.00 1.14 0.03 45 1017.9
20220628141544 27 36 0.0 3.2 0.00 1.14 0.03 46 1017.7
20220628140041 27 355 0.0 4.8 0.00 1.14 0.03 45 1017.6
20220628134534 27 58 0.0 4.8 0.00 1.14 0.03 47 1017.7
20220628133030 27 1 0.0 1.6 0.00 1.14 0.03 47 1017.7
20220628131524 27 356 0.0 1.6 0.00 1.14 0.03 47 1017.4
20220628130025 26 6 0.0 0.0 0.00 1.14 0.03 48 1017.3
20220628124515 26 325 0.0 3.2 0.00 1.14 0.03 50 1017.2
20220628123015 25 23 0.0 3.2 0.00 1.14 0.03 51 1017.2
20220628121503 25 354 0.0 1.6 0.00 1.14 0.03 51 1017.0
20220628120100 25 323 0.0 0.0 0.00 1.14 0.03 52 1017.1
20220628114554 24 329 0.0 0.0 0.00 1.14 0.03 53 1016.8
20220628113049 23 328 0.0 1.6 0.00 1.14 0.03 55 1016.6
20220628111543 23 311 0.0 0.0 0.00 1.14 0.03 56 1016.4
20220628110041 22 308 0.0 1.6 0.00 1.14 0.03 59 1016.5
20220628104540 21 304 0.0 0.0 0.00 1.14 0.03 63 1016.4
20220628103029 19 299 0.0 0.0 0.00 1.14 0.03 67 1016.3
20220628101522 17 131 0.0 1.6 0.00 1.14 0.03 72 1016.3
20220628100018 17 131 0.0 0.0 0.00 1.14 0.03 72 1016.2
20220628094513 17 131 0.0 1.6 0.03 1.14 0.03 71 1015.9
20220628093008 17 131 0.0 0.0 0.03 1.14 0.03 70 1015.6
20220628091505 17 131 0.0 0.0 0.03 1.14 0.03 70 1015.4
20220628090105 17 131 0.0 0.0 0.03 1.14 0.03 72 1015.3
20220628084553 16 143 3.2 12.9 0.00 1.12 0.00 52 1015.1
20220628083052 16 79 6.4 16.1 0.00 1.12 0.00 54 1015.0
20220628081541 16 86 6.4 12.9 0.00 1.12 0.00 56 1015.0
20220628080037 16 82 6.4 14.5 0.00 1.12 0.00 56 1015.0
20220628074533 17 110 4.8 12.9 0.00 1.12 0.00 57 1014.8
20220628073027 17 108 4.8 11.3 0.00 1.12 0.00 55 1014.8
20220628071520 17 153 3.2 9.7 0.00 1.12 0.00 53 1014.7
20220628070018 17 118 1.6 16.1 0.00 1.12 0.00 54 1014.6
20220628064512 17 54 8.0 14.5 0.00 1.12 0.00 57 1014.3
20220628063007 17 145 4.8 16.1 0.00 1.12 0.00 57 1014.3
20220628061502 18 88 8.0 16.1 0.00 1.12 0.00 57 1014.1
20220628060056 18 109 6.4 17.7 0.00 1.12 0.00 55 1014.1
20220628054551 18 68 8.0 16.1 0.00 1.12 0.00 54 1013.9
20220628053049 18 111 9.7 19.3 0.00 1.12 0.00 52 1013.6
20220628051551 18 111 8.0 16.1 0.00 1.12 0.00 50 1013.6
20220628050009 18 88 6.4 14.5 0.00 1.12 0.00 46 1013.5
20220628044505 18 71 6.4 14.5 0.00 1.12 0.00 41 1013.4
20220628043032 19 90 6.4 12.9 0.00 1.12 0.00 28 1013.4
20220628041527 19 117 4.8 12.9 0.00 1.12 0.00 14 1013.2